Weather History for Buffalo, WY

Change the Weather History Date:

Wednesday, December 26, 2012

  Actual Average Record
Temperature  
Mean Temperature 14 °F 26 °F  
Max Temperature 19 °F 37 °F 49 °F (1999)
Min Temperature 8 °F 15 °F 5 °F (2007)
Degree Days  
Heating Degree Days 51 39  
Month to date heating degree days 931 1022  
Since 1 July heating degree days 2488 2856  
Cooling Degree Days 0 0  
Month to date cooling degree days 0 0  
Year to date cooling degree days 795 492  
Moisture  
Dew Point 8 °F    
Average Humidity 74    
Maximum Humidity 88    
Minimum Humidity 59    
Precipitation  
Precipitation 0.06 in 0.01 in 0.16 in (2003)
Month to date precipitation 0.07 0.34  
Year to date precipitation 8.89 13.39  
Sea Level Pressure  
Sea Level Pressure 29.79 in    
Wind  
Wind Speed 5 mph (NNW)    
Max Wind Speed 15 mph    
Max Gust Speed 26 mph    
Visibility 5 miles    
Events Snow    
T = Trace of Precipitation, MM = Missing Value Source: NWS Daily Summary

Daily Weather History Graph

Daily Weather History Graph

Search for Another Location

Airport:

Trip Planner

Search our weather history database for the weather conditions in past years. The results will help you decide how hot, cold, wet, or windy it might be!

Date:

Astronomy

Dec. 26, 2012 Rise Set
Actual Time 7:42 AM MST 4:33 PM MST
Civil Twilight 7:08 AM MST 5:07 PM MST
Nautical Twilight 6:31 AM MST 5:43 PM MST
Astronomical Twilight 5:56 AM MST 6:19 PM MST
Moon 3:30 PM MST (12/26) 6:06 AM MST (12/26)
Length of Visible Light 9h 58m
Length of Day
8h 51m
Waxing Gibbous, 98% of the Moon is Illuminated
Dec 26
Waxing Gibbous
Dec 28
Full
Jan 4
Last Quarter
Jan 11
New
Jan 18
First Quarter

Hourly Weather History & Observations

Time (MST) Temp. Windchill Dew Point Humidity Pressure Visibility Wind Dir Wind Speed Gust Speed Precip Events Conditions
12:53 AM 10.0 °F - 1.9 °F 70% 30.05 in 10.0 mi Calm Calm - N/A   Clear
1:53 AM 10.9 °F - 1.9 °F 67% 30.02 in 10.0 mi Calm Calm - N/A   Clear
2:53 AM 12.0 °F -1.3 °F 3.9 °F 70% 30.01 in 10.0 mi North 10.4 mph 26.5 mph N/A   Overcast
3:53 AM 15.1 °F - 5.0 °F 64% 29.96 in 10.0 mi Calm Calm - N/A   Overcast
4:53 AM 14.0 °F - 3.9 °F 64% 29.94 in 10.0 mi Calm Calm - N/A   Clear
5:53 AM 12.9 °F - 5.0 °F 71% 29.93 in 10.0 mi Calm Calm - N/A   Clear
6:53 AM 12.9 °F - 5.0 °F 71% 29.90 in 10.0 mi Calm Calm - N/A   Clear
7:53 AM 9.0 °F 2.4 °F 3.0 °F 77% 29.91 in 10.0 mi South 3.5 mph - N/A   Scattered Clouds
8:53 AM 15.1 °F 7.7 °F 7.0 °F 70% 29.89 in 10.0 mi NW 4.6 mph - N/A   Overcast
9:53 AM 15.1 °F - 10.0 °F 80% 29.90 in 10.0 mi Calm Calm - N/A   Overcast
10:53 AM 16.0 °F 7.4 °F 10.9 °F 81% 29.87 in 10.0 mi North 5.8 mph - N/A   Overcast
11:53 AM 18.0 °F 6.1 °F 12.0 °F 78% 29.83 in 10.0 mi NNW 10.4 mph - N/A   Overcast
12:53 PM 17.1 °F 6.6 °F 10.0 °F 74% 29.82 in 10.0 mi NNW 8.1 mph - N/A   Overcast
1:53 PM 18.0 °F 12.7 °F 10.0 °F 71% 29.80 in 10.0 mi NE 3.5 mph - N/A   Overcast
2:53 PM 15.1 °F 5.2 °F 8.1 °F 74% 29.81 in 10.0 mi North 6.9 mph - N/A   Overcast
3:24 PM 15.8 °F 7.2 °F 8.6 °F 73% 29.64 in 2.5 mi North 5.8 mph - 0.00 in Snow Light Snow
3:34 PM 15.8 °F 7.2 °F 8.6 °F 73% 29.64 in 1.5 mi North 5.8 mph - 0.00 in Snow Light Snow
3:53 PM 14.0 °F 5.1 °F 9.0 °F 80% 29.82 in 1.5 mi North 5.8 mph - 0.00 in Snow Light Snow
4:05 PM 14.0 °F 6.5 °F 8.6 °F 79% 29.65 in 1.0 mi North 4.6 mph - 0.01 in Snow Light Snow
4:29 PM 12.2 °F 6.1 °F 8.6 °F 85% 29.65 in 0.8 mi NE 3.5 mph - 0.01 in Snow Light Snow
4:53 PM 12.0 °F - 8.1 °F 84% 29.83 in 1.2 mi Calm Calm - 0.01 in Snow Light Snow
5:37 PM 12.2 °F 6.1 °F 8.6 °F 85% 29.65 in 2.0 mi NW 3.5 mph - 0.00 in Snow Light Snow
5:46 PM 12.2 °F 4.3 °F 8.6 °F 85% 29.65 in 1.5 mi NW 4.6 mph - 0.00 in Snow Light Snow
5:53 PM 12.9 °F 5.2 °F 9.0 °F 84% 29.83 in 1.5 mi NW 4.6 mph - 0.00 in Snow Light Snow
6:33 PM 14.0 °F 2.9 °F 10.4 °F 86% 29.65 in 1.0 mi NW 8.1 mph - 0.02 in Snow Light Snow
6:40 PM 14.0 °F 2.9 °F 10.4 °F 86% 29.65 in 0.8 mi NW 8.1 mph - 0.02 in Snow Light Snow
6:53 PM 14.0 °F 2.9 °F 10.0 °F 84% 29.82 in 1.0 mi NW 8.1 mph - 0.02 in Snow Light Snow
7:06 PM 14.0 °F 2.9 °F 10.4 °F 86% 29.65 in 1.0 mi NW 8.1 mph - 0.01 in Snow Light Snow
7:14 PM 14.0 °F 1.2 °F 10.4 °F 86% 29.65 in 1.2 mi NNW 10.4 mph - 0.02 in Snow Light Snow
7:53 PM 12.9 °F -2.2 °F 9.0 °F 84% 29.85 in 1.2 mi NNW 13.8 mph - 0.02 in Snow Light Snow
8:53 PM 12.9 °F 0.7 °F 9.0 °F 84% 29.82 in 1.2 mi NNW 9.2 mph - 0.00 in Snow Light Snow
9:15 PM 12.2 °F 0.7 °F 8.6 °F 85% 29.65 in 2.0 mi NNW 8.1 mph - 0.00 in Snow Light Snow
9:53 PM 12.9 °F -0.9 °F 9.0 °F 84% 29.82 in 1.8 mi NNW 11.5 mph 19.6 mph 0.00 in Snow Light Snow
10:03 PM 12.2 °F -1.8 °F 8.6 °F 85% 29.65 in 1.8 mi NNW 11.5 mph 21.9 mph 0.00 in Snow Light Snow
10:17 PM 12.2 °F -0.2 °F 8.6 °F 85% 29.65 in 1.8 mi NNW 9.2 mph - 0.00 in Snow Light Snow
10:53 PM 12.0 °F 1.5 °F 9.0 °F 88% 29.83 in 2.0 mi North 6.9 mph - 0.00 in Snow Light Snow
11:23 PM 12.2 °F 0.7 °F 8.6 °F 85% 29.66 in 1.8 mi NNW 8.1 mph - 0.00 in Snow Light Snow
11:50 PM 12.2 °F -0.2 °F 8.6 °F 85% 29.66 in 1.2 mi NNW 9.2 mph - 0.01 in Snow Light Snow
11:53 PM 12.0 °F -0.4 °F 9.0 °F 88% 29.83 in 1.2 mi NNW 9.2 mph - 0.01 in Snow Light Snow